Home > Weather > Saalfeld/Saale > Past weeks

Flag for Germany Past Weather in Saalfeld/Saale, Thuringia, Germany — Yesterday and Last 2 Weeks

Now
64 °F

Sunny.


Feels Like: 64 °F
Forecast: 56 / 88 °F
Wind: 3 mph from Southwest

Location: Erfurt-Bindersleben

Current Time: Aug 24, 2016 at 8:31:13 AM

Latest Report: Aug 24, 2016 at 7:50 AM


Visibility: 10 mi

Pressure: 30.30 "Hg

Humidity: 78%

Dew Point: 57 °F

Location of Saalfeld/SaaleLocation

Past Weather in Saalfeld/Saale — Graph

°F

Saalfeld/Saale Temperature Yesterday

Maximum temperature yesterday: 81 °F (at 2:50 PM)
Minimum temperature yesterday: 57 °F (at 4:50 AM)
Average temperature yesterday: 69 °F

High & Low Weather Summary for the Past Weeks

 TemperatureHumidityPressure
High81 °F (Aug 23, 2:50 PM)100% (Aug 10, 1:50 AM)30.36 "Hg (Aug 10, 1:50 AM)
Low39 °F (Aug 11, 5:20 AM)29% (Aug 18, 4:50 PM)29.80 "Hg (Aug 18, 4:50 PM)
Average62 °F69%30.12 "Hg
* Reported Aug 9 7:20 AM — Aug 24 7:20 AM, Saalfeld/Saale, Weather by CustomWeather, © 2016

Note: Actual official high and low records may vary slightly from our data, if they occured in-between our weather recording intervals... More about our weather records

Advertising

Saalfeld/Saale Weather History for the Previous 24 Hours

Scroll right to see more
 ConditionsComfort  
Time TempWeatherWind HumidityBarometerVisibility
7:20 AM
Wed, Aug 24
61 °FSunny.5 mph88%30.30 "Hg10 mi
6:50 AM61 °FClear.3 mph88%30.30 "Hg10 mi
6:20 AM59 °FClear.5 mph94%30.30 "Hg10 mi
5:50 AM61 °FClear.5 mph88%30.30 "Hg10 mi
5:20 AM61 °FClear.6 mph88%30.30 "Hg10 mi
4:50 AM61 °FClear.No wind88%30.30 "Hg10 mi
4:20 AM61 °FClear.No wind88%30.30 "Hg10 mi
3:50 AM63 °FClear.No wind83%30.30 "Hg10 mi
3:20 AM64 °FClear.2 mph83%30.30 "Hg10 mi
2:50 AM63 °FClear.2 mph88%30.30 "Hg10 mi
2:20 AM64 °FClear.1 mph83%30.30 "Hg10 mi
1:50 AM64 °FClear.2 mph83%30.30 "Hg10 mi
1:20 AM66 °FClear.2 mph78%30.33 "Hg10 mi
12:50 AM66 °FClear.2 mph78%30.33 "Hg10 mi
12:20 AM66 °FClear.2 mph78%30.33 "Hg10 mi
11:50 PM
Tue, Aug 23
68 °FClear.2 mph73%30.33 "Hg10 mi
11:20 PM68 °FClear.3 mph73%30.33 "Hg10 mi
10:50 PM68 °FClear.5 mph73%30.33 "Hg10 mi
10:20 PM70 °FPassing clouds.3 mph69%30.33 "HgN/A
9:50 PM70 °FClear.5 mph69%30.33 "Hg10 mi
9:20 PM72 °FPassing clouds.5 mph65%30.33 "HgN/A
8:50 PM73 °FPassing clouds.6 mph61%30.33 "HgN/A
8:20 PM73 °FSunny.6 mph57%30.30 "Hg10 mi
7:50 PM75 °FPassing clouds.8 mph54%30.30 "HgN/A
7:20 PM77 °FPassing clouds.7 mph51%30.30 "HgN/A
6:50 PM77 °FPassing clouds.9 mph51%30.30 "HgN/A
6:20 PM81 °FPassing clouds.6 mph42%30.30 "HgN/A
5:50 PM81 °FPassing clouds.7 mph42%30.30 "HgN/A
5:20 PM81 °FPassing clouds.7 mph42%30.30 "HgN/A
4:50 PM81 °FPassing clouds.7 mph42%30.30 "HgN/A
4:20 PM77 °FPassing clouds.7 mph47%30.33 "HgN/A
3:50 PM81 °FSunny.6 mph45%30.33 "Hg10 mi
3:20 PM81 °FPassing clouds.7 mph45%30.33 "HgN/A
2:50 PM81 °FPassing clouds.6 mph42%30.33 "HgN/A
2:20 PM79 °FPassing clouds.6 mph45%30.33 "HgN/A
1:50 PM77 °FPassing clouds.6 mph44%30.33 "HgN/A
1:20 PM77 °FPassing clouds.9 mph42%30.33 "HgN/A
12:50 PM75 °FPassing clouds.9 mph47%30.36 "HgN/A
12:20 PM75 °FScattered clouds.12 mph44%30.36 "HgN/A
11:50 AM75 °FScattered clouds.9 mph50%30.36 "HgN/A
11:20 AM73 °FPassing clouds.8 mph57%30.36 "HgN/A
10:50 AM73 °FPassing clouds.9 mph57%30.36 "HgN/A
10:20 AM72 °FPassing clouds.9 mph61%30.36 "HgN/A
9:50 AM70 °FPassing clouds.9 mph64%30.36 "HgN/A
9:20 AM68 °FPassing clouds.8 mph69%30.36 "HgN/A
8:50 AM66 °FSunny.8 mph73%30.36 "Hg10 mi
8:20 AM63 °FSunny.9 mph83%30.36 "Hg10 mi
Weather by CustomWeather, © 2016

See weather overviewHow to use our weather pages